DECAYED
Showing default

RASSVET-3 4, 68363 (Decayed)

Orbit data source: Space-Track

RASSVET-3 4, 68363 was a payload satellite owned by Byuro 1440 (CIS) in LEO that was launched on Mon, 23 Mar 2026 UTC via a SOYUZ-2-1B launch vehicle from the Plesetsk Missile And Space Complex (PKMTR). Payload-class satellites include a variety of spacecraft equipped with specific instruments for various scientific and technological missions. These include communications satellites like Starlink; space stations such as the ISS; scientific satellites like the Hubble; Earth observation satellites from companies like Planet Labs, Umbra, and HawkEye 360; GPS; miniature CubeSats for education and research; and military/defense satellites.

Not visible in the next 10 days
Identifier
68363, 2026-061D
Orbit
Decayed
Country
Flag of CISCIS
Related business
Manufacturer
Byuro 1440
Mission
Decayed spacecraft
Bus & Motor
RASSVET-2, Unknown motor
Mass
~370 kg wet, ~370 kg dry
Launch date (UTC)
2026-03-23 (3 months ago)
Launch vehicle
SOYUZ-2-1B
Launch site
Plesetsk Missile And Space Complex (PKMTR)
Object type
Payload
Rocket body
Debris
Shape & HBR
Unknown shape, 1.6 m
Radar Cross Section
Large (>1 m²)

Expand to show TLE details & history
Last TLE update: 2 weeks ago

TLE from 2 weeks ago
0 RASSVET-3 4
1 68363U 26061D   26157.01597434  .06244101 -11867-5  34339-3 0  9997
2 68363  82.2944  23.3733 0009168 231.2805 128.7676 16.41665357 11871
Epoch: 2026-06-06T00:23Z
TLE epoch observation values (Epoch: 2026-06-06T00:23:00.182Z)
Latitude
-0.00001°
Longitude
123.18495°
Altitude
168.379 km
Speed
7.803 km/s
True Right ascension
01h 33m 29s
True Declination
0° 00' 00"
Sunlit
Object was in daylight at epoch
Visualization orbit readout
Latitude
Unknown
Longitude
Unknown
Altitude
Unknown
Speed
Unknown
Apparent Right ascension
Unknown
Apparent Declination
Unknown
Sunlit
N/A
Visualization observer readout
Local Sidereal Time
13:29:26
Azimuth
Unknown
Elevation
Unknown
Doppler factor
Unknown
Orbital elements
Apogee altitude
164.188 km
Perigee altitude
152.203 km
Semi-major axis
6,536.333 km
Eccentricity
0.00092
Inclination
82.2944°
RAAN
23.3733°
Arg. of periapsis
231.2805°
True anomaly
128.84945°
Mean anomaly
128.7676°
Eccentric anomaly
128.80853°
Mean motion
4.10716 °/min
Orbital period
87.65 mins
BSTAR
0.00034339
Loading maneuver chart data...
Computing Atmospheric mass density...
Loading historical data...
Loading historical data...
Loading historical data...
Loading historical data...
Loading historical data...
Loading historical data...
Loading historical data...

Documentation

Showing up to 5 results
|